(2017 QW1) |
Classification: Aten [NEO] SPK-ID: 3780740 |
[ hide orbit diagram ]
For accurate long-term ephemerides, please instead use our Horizons system.This orbit viewer was implemented using two-body methods, and hence should not be used for determining accurate long-term trajectories (over several years or decades) or planetary encounter circumstances.
Orbital Elements at Epoch 2459200.5 (2020-Dec-17.0) TDB
Reference: JPL 8 (heliocentric ecliptic J2000)
Element | Value | Uncertainty (1-sigma) | Units |
e | .1268523609070443 | 0.00015018 | |
a | .984760720563858 | 4.4735e-06 | au |
q | .8598414982318106 | 0.00014423 | au |
i | 4.116911365770487 | 0.0051435 | deg |
node | 326.963341047875 | 0.00064611 | deg |
peri | 233.8886162771576 | 0.012389 | deg |
M | 258.2399098328407 | 0.03771 | deg |
tp | 2459301.394962994901 (2021-Mar-27.89496299) | 0.038053 | TDB |
period | 356.9394113006246 0.98 | 0.0024322 6.659e-06 | d yr |
n | 1.008574532826799 | 6.8725e-06 | deg/d |
Q | 1.109679942895905 | 5.041e-06 | au |
|
| | Orbit Determination Parameters
Additional Information
|
[ show covariance matrix ]
Physical Parameter Table
Parameter |
Symbol |
Value |
Units |
Sigma |
Reference |
Notes |
absolute magnitude |
H |
26.2 |
|
n/a |
MPO416579 |
|
rotation period |
rot_per |
0.0987 |
h |
n/a |
LCDB (Rev. 2020-October); Warner et al., 2009 |
Result based on less than full coverage, so that the period may be wrong by 30 percent or so. Published Reference List: [Thirouin, A.; Moskovitz, N.A.; Binzel, R.P.; Christensen, E.J.; et al. (2018) Astrophys. J. Supp. Series 2391, A4.] |
|
[ show close-approach data ]
|